Location: Nelson
(41.2830°S, 173.2830°E)
Time: 04:23:16
(UTC+12:00)

NOAA 6 - Pass Details

Date: 14 May 2021
Orbit: 773 x 786 km, 98.7° (Epoch: 17 June)

Event Time Altitude Azimuth Distance (km) Brightness Sun altitude
Rises 18:11:44 0° 161° (SSE) 3,296 6.9 -10.1°
Reaches altitude 10° 18:14:09 10° 156° (SSE) 2,358 6.2 -10.6°
Maximum altitude 18:19:13 50° 80° (E) 990 4.2 -11.5°
Drops below altitude 10° 18:24:11 10° 4° (N) 2,323 6.6 -12.4°
Sets 18:26:33 0° 359° (N) 3,241 7.4 -12.8°
